Location: Buchloe
(48.0161°N, 10.7316°E)
Time: 08:25:39
(UTC+02:00)

ISS - Pass Details

Date: 19 May 2018
Orbit: 402 x 407 km, 51.6° (Epoch: 26 May)

Event Time Altitude Azimuth Distance (km) Brightness Sun altitude
Exits shadow 02:30:05 12° 290° (WNW) 1,324 -1.2 -20.1°
Maximum altitude 02:32:51 41° 1° (N) 594 -2.6 -20.0°
Drops below altitude 10° 02:35:59 10° 74° (ENE) 1,457 -0.6 -19.8°
Sets 02:38:08 0° 82° (E) 2,316 0.4 -19.7°
